Parkersburg, WV

2:14 PM EDT on October 19, 2019 (GMT -0400)
Wood County Wilson

Weather History for KPKB - August, 2019

Change the Weather History Date:

Sunday, August 18, 2019

  Actual Average Record
Temperature  
Mean Temperature 79 °F 74 °F  
Max Temperature 91 °F 84 °F 94 °F (1988)
Min Temperature 67 °F 63 °F 50 °F (1962)
Degree Days  
Heating Degree Days 0 0  
Month to date heating degree days 0 0  
Since 1 June heating degree days 16 20  
Since 1 July heating degree days 0 1  
Cooling Degree Days 14 9  
Month to date cooling degree days 178 162  
Year to date cooling degree days 875 729  
Since 1 June cooling degree days 730 645  
Growing Degree Days 29 (Base 50)    
Moisture  
Dew Point 69 °F    
Average Humidity 76    
Maximum Humidity 100    
Minimum Humidity 52    
Precipitation  
Precipitation 0.00 in 0.12 in 3.38 in (1990)
Month to date precipitation 3.04 2.16  
Year to date precipitation 32.48 27.34  
Sea Level Pressure  
Sea Level Pressure 30.00 in    
Wind  
Wind Speed 3 mph (South)    
Max Wind Speed 10 mph    
Max Gust Speed 14 mph    
Visibility 6 miles    
Events      
T = Trace of Precipitation, MM = Missing Value Source: NWS Daily Summary

Daily Weather History Graph

Daily Weather History Graph

Search for Another Location

Airport or City:

Astronomy

Aug. 18, 2019 Rise Set
Actual Time 6:41 AM EDT 8:17 PM EDT
Civil Twilight 6:12 AM EDT 8:45 PM EDT
Nautical Twilight 5:38 AM EDT 9:20 PM EDT
Astronomical Twilight 5:01 AM EDT 9:56 PM EDT
Moon 10:12 PM EDT (8/18) 9:24 AM EDT (8/18)
Length of Visible Light 14h 33m
Length of Day
13h 36m
Waning Gibbous, 91% of the Moon is Illuminated
Aug 18
Waning Gibbous
Aug 23
Last Quarter
Aug 30
New
Sep 5
First Quarter
Sep 14
Full

Hourly Weather History & Observations

Time (EDT) Temp. Heat Index Dew Point Humidity Pressure Visibility Wind Dir Wind Speed Gust Speed Precip Events Conditions
12:19 AM 73.0 °F - 71.1 °F 93% 30.03 in 2.0 mi Calm Calm - N/A   Clear
12:30 AM 73.0 °F - 70.0 °F 90% 30.03 in 4.0 mi Calm Calm - N/A   Clear
12:53 AM 72.0 °F - 70.0 °F 93% 30.00 in 4.0 mi SE 3.5 mph - N/A   Clear
1:53 AM 71.1 °F - 69.1 °F 93% 29.99 in 4.0 mi Calm Calm - N/A   Clear
2:03 AM 71.1 °F - 69.1 °F 93% 30.02 in 1.8 mi Calm Calm - N/A   Clear
2:20 AM 70.0 °F - 69.1 °F 97% 30.01 in 3.0 mi Calm Calm - N/A   Clear
2:24 AM 70.0 °F - 69.1 °F 97% 30.01 in 1.8 mi Calm Calm - N/A   Clear
2:35 AM 70.0 °F - 68.0 °F 93% 30.02 in 3.0 mi Calm Calm - N/A   Clear
2:48 AM 69.8 °F - 68.0 °F 94% 30.02 in 2.0 mi Calm Calm - N/A   Clear
2:53 AM 70.0 °F - 69.1 °F 97% 29.99 in 1.8 mi Calm Calm - N/A   Clear
3:08 AM 69.1 °F - 68.0 °F 96% 30.01 in 3.0 mi Calm Calm - N/A   Clear
3:53 AM 69.1 °F - 66.9 °F 93% 29.99 in 3.0 mi Calm Calm - N/A   Clear
4:14 AM 68.0 °F - 66.9 °F 96% 30.02 in 3.0 mi Calm Calm - N/A   Clear
4:53 AM 69.1 °F - 66.9 °F 93% 30.00 in 4.0 mi Calm Calm - N/A   Clear
5:53 AM 68.0 °F - 66.0 °F 93% 30.00 in 4.0 mi ESE 3.5 mph - N/A   Clear
6:46 AM 68.0 °F - 66.0 °F 93% 30.03 in 2.5 mi Calm Calm - N/A   Clear
6:53 AM 68.0 °F - 66.0 °F 93% 30.01 in 5.0 mi Calm Calm - N/A   Clear
7:53 AM 71.1 °F - 68.0 °F 90% 30.02 in 7.0 mi Calm Calm - N/A   Clear
8:53 AM 75.0 °F - 69.1 °F 82% 30.02 in 10.0 mi Calm Calm - N/A   Clear
9:53 AM 78.1 °F - 68.0 °F 71% 30.02 in 10.0 mi South 6.9 mph - N/A   Clear
10:53 AM 82.0 °F 85.5 °F 69.1 °F 65% 30.03 in 10.0 mi SSW 5.8 mph - N/A   Clear
11:53 AM 84.9 °F 90.1 °F 71.1 °F 63% 30.03 in 10.0 mi SSW 5.8 mph - N/A   Clear
12:53 PM 87.1 °F 92.0 °F 70.0 °F 57% 30.03 in 10.0 mi South 6.9 mph - N/A   Partly Cloudy
1:53 PM 87.1 °F 92.8 °F 71.1 °F 59% 30.02 in 10.0 mi WSW 8.1 mph - N/A   Mostly Cloudy
2:53 PM 90.0 °F 96.4 °F 71.1 °F 54% 30.01 in 10.0 mi WSW 8.1 mph - N/A   Scattered Clouds
3:53 PM 87.1 °F 92.8 °F 71.1 °F 59% 29.99 in 10.0 mi South 5.8 mph - N/A   Mostly Cloudy
4:53 PM 90.0 °F 94.5 °F 69.1 °F 50% 29.97 in 10.0 mi South 9.2 mph - N/A   Clear
5:53 PM 90.0 °F 94.5 °F 69.1 °F 50% 29.96 in 10.0 mi SSW 5.8 mph - N/A   Clear
6:53 PM 88.0 °F 92.9 °F 70.0 °F 55% 29.94 in 10.0 mi SSW 4.6 mph - N/A   Clear
7:53 PM 84.9 °F 89.4 °F 70.0 °F 61% 29.94 in 10.0 mi South 3.5 mph - N/A   Clear
8:53 PM 79.0 °F - 73.0 °F 82% 29.94 in 10.0 mi Calm Calm - N/A   Clear
9:53 PM 77.0 °F - 72.0 °F 84% 29.96 in 9.0 mi Calm Calm - N/A   Clear
10:53 PM 75.0 °F - 72.0 °F 90% 29.97 in 10.0 mi Calm Calm - N/A   Clear
11:53 PM 73.0 °F - 71.1 °F 93% 29.98 in 8.0 mi Calm Calm - N/A   Clear